SCP
0 0 0 0 0 0 0 0 0 0 0 0 0 0 0 0 0 0 0 0 0 0 0 0 0 0 0 0 0 0 0 0 0 0 0 0 0 0 0 0 0 0 0 0
0 0 0 0 0 0 0 0 0 0 0 0 0 0 0 0 0 0 0 0 0 0 0 0 0 0 0 0 0 0 0 0 0 0 0 0 0 0 0 0 0 0 0 0
0 0 0 0 0 0 0 0 0 0 0 0 0 0 0 0 0 0 0 0 0 0 0 0 0 0 0 0 0 0 0 0 0 0 0 0 0 0 0 0 0 0 0 0
0 0 0 0 0 0 0 1 1 1 0 0 0 0 0 0 0 0 0 0 0 0 0 0 0 0 0 0 0 0 0 0 0 0 0 0 0 0 0 0 0 0 0 0
0 0 0 0 0 0 0 1 1 1 0 0 1 1 0 0 0 0 0 0 0 0 0 0 0 0 0 0 0 0 0 0 0 0 0 0 0 0 0 0 0 0 0 0
0 0 0 0 0 0 0 1 1 1 0 1 1 1 0 0 0 0 0 0 0 0 0 0 0 0 0 0 0 0 0 0 0 0 0 0 0 0 0 0 0 0 0 0
0 0 0 0 0 0 0 0 0 0 1 1 1 1 0 0 0 0 0 0 0 0 0 0 0 0 0 0 0 0 0 0 0 0 0 0 0 0 0 0 0 0 0 0
0 0 0 1 1 0 0 0 0 0 0 0 0 0 0 0 0 0 0 0 0 1 1 1 1 1 0 1 1 1 0 0 0 0 0 0 0 0 0 0 0 0 0 0
0 0 0 0 0 0 0 0 0 0 0 0 0 0 0 0 0 0 0 0 0 1 1 1 1 1 0 1 1 1 1 1 0 0 0 0 0 0 0 0 0 0 0 0
0 0 0 0 0 0 0 0 0 0 0 0 0 0 0 0 0 0 0 0 0 0 1 1 0 0 0 0 0 0 0 0 0 0 0 0 0 0 0 0 0 0 0 0
1 1 0 0 0 0 0 0 0 0 0 0 0 0 0 0 0 0 0 0 0 0 0 0 0 0 0 0 0 0 0 0 0 0 0 0 0 0 0 0 0 0 0 0
1 1 1 0 0 0 0 0 0 0 0 0 0 0 0 0 0 0 0 0 0 0 0 0 0 0 0 0 0 0 0 0 0 0 0 0 0 0 0 0 0 0 0 0
1 1 1 1 0 0 0 0 0 0 0 0 0 0 0 0 0 0 0 0 0 0 0 0 0 0 0 0 0 0 0 0 0 0 0 0 0 0 0 0 0 0 0 0
1 1 1 1 0 0 0 0 0 0 0 0 0 0 0 0 0 0 0 0 0 0 0 0 0 0 0 0 0 0 0 0 0 0 0 0 0 0 0 0 0 0 0 0
0 0 0 0 0 0 0 0 0 0 0 0 0 0 0 0 0 0 0 0 0 0 0 0 0 0 0 0 0 0 0 0 0 0 0 0 0 0 0 0 0 0 0 0
0 0 0 0 0 0 0 0 0 0 0 0 0 0 0 0 0 0 0 0 0 0 0 0 0 0 0 0 0 0 0 0 0 0 0 0 0 0 0 0 0 0 0 0
0 0 0 0 0 0 0 0 0 0 0 0 0 0 0 0 0 0 0 0 0 0 0 0 0 0 0 0 0 0 0 0 0 0 0 0 0 0 0 0 0 0 0 0
0 0 0 0 0 0 0 0 0 0 0 0 0 0 0 0 0 0 0 0 0 0 0 0 0 0 0 0 0 0 0 0 0 0 0 0 0 0 0 0 0 0 0 0
0 0 0 0 0 0 0 0 0 0 0 0 0 0 0 0 0 0 0 0 0 0 0 0 0 0 0 0 0 0 0 0 0 0 0 0 0 0 0 0 0 0 0 0
0 0 0 0 0 0 0 0 0 0 0 0 0 0 0 0 0 0 0 0 0 0 0 0 0 0 0 0 0 0 0 0 0 0 0 0 0 0 0 0 0 0 0 0
0 0 0 0 0 0 0 0 0 0 0 0 0 0 0 0 0 0 0 0 0 0 0 0 0 0 0 0 0 0 0 0 0 0 0 0 0 0 0 0 0 0 0 0
0 0 0 0 0 0 0 0 0 0 0 0 0 0 0 0 0 0 0 0 0 0 0 0 0 0 0 0 0 0 0 0 0 0 0 0 0 0 0 0 0 0 0 0
0 0 0 0 0 0 0 0 0 0 0 0 0 0 0 0 0 0 0 0 0 0 0 0 0 0 0 0 0 0 0 0 0 0 0 0 0 0 0 0 0 0 0 0
0 0 0 0 0 0 0 0 0 0 0 0 0 0 0 0 0 0 0 0 0 0 0 0 0 0 0 0 0 0 0 0 0 0 0 0 0 0 0 0 0 0 0 0
0 0 0 0 0 0 0 0 0 0 0 0 0 0 0 0 0 0 0 0 0 0 0 0 0 0 0 0 0 0 0 0 0 0 0 0 0 0 0 0 0 0 0 0
0 0 0 0 0 0 0 0 0 0 0 0 0 0 0 0 0 0 0 0 0 0 0 0 0 0 0 0 0 0 0 0 0 0 0 0 0 0 0 0 0 0 0 0
0 0 0 0 0 0 0 0 0 0 0 0 0 0 0 0 0 0 0 0 0 0 0 0 0 0 0 0 0 0 0 0 0 0 0 0 0 0 0 0 0 0 0 0
Wind_Speed
4 5 4 4 5 4 2 5 6 7 6 7 6 7 6 5 6 8 9 10 12 12 11 10 10 10 10 10 10 10 10 10 10 9 9 8 8 8 8 7 8 7 7 7
3 4 3 4 5 5 3 3 3 2 3 5 2 1 2 3 6 8 9 11 12 12 11 11 12 12 11 10 10 10 11 12 10 9 9 9 9 8 8 8 7 7 7 7
3 4 3 4 4 1 4 5 1 2 3 2 4 3 1 2 4 6 7 7 8 10 11 13 13 13 14 13 10 10 11 11 10 10 10 10 9 8 9 8 8 7 8 7
1 2 3 7 1 5 9 8 7 4 4 4 4 3 5 4 2 1 2 4 6 7 8 8 9 10 11 10 10 11 11 11 10 10 11 9 9 9 9 7 7 7 8 8
2 2 4 2 1 2 6 3 5 4 5 6 5 9 11 11 7 5 4 2 1 3 3 4 5 7 7 7 7 9 10 11 11 11 10 9 10 10 8 7 7 7 6 7
3 2 4 5 3 0 7 2 4 1 4 4 6 5 4 8 8 9 8 7 6 4 5 4 3 1 3 4 5 8 10 10 9 9 10 10 11 9 7 7 8 7 7 7
3 3 5 3 3 3 3 6 5 2 2 3 3 4 2 3 7 8 9 9 8 9 9 7 6 4 2 1 3 6 5 4 5 6 8 9 8 7 6 7 7 7 7 7
3 2 5 3 3 1 5 3 4 3 3 5 6 5 4 5 7 8 9 9 8 8 8 8 8 8 7 6 5 4 3 2 3 4 5 6 6 6 6 7 7 7 7 7
6 6 5 2 3 3 4 4 4 5 5 8 7 6 6 6 6 7 7 8 7 8 8 9 9 9 9 7 7 6 5 5 4 4 4 4 4 6 5 5 6 6 6 8
2 3 3 2 2 3 4 4 3 5 7 8 9 8 7 6 6 6 7 7 7 8 9 9 9 9 7 7 7 7 7 6 6 5 5 4 3 4 5 5 6 7 7 8
2 2 2 1 2 3 3 5 9 9 9 8 9 8 7 6 5 5 5 5 6 7 7 7 7 8 8 8 8 8 7 6 6 5 5 5 5 5 6 7 8 9 9 9
9 10 7 5 4 5 7 8 10 11 10 8 8 7 6 5 4 4 5 5 6 6 6 5 6 6 7 7 6 6 6 6 5 5 5 5 6 7 9 11 14 17 18 15
7 7 6 6 6 8 9 10 10 11 10 8 7 6 6 4 3 4 5 5 4 4 4 4 4 5 6 5 5 5 5 6 5 5 6 6 6 7 9 10 13 15 16 17
11 11 8 6 8 10 11 11 11 10 8 7 6 5 5 4 4 4 3 2 2 3 3 3 3 4 5 4 4 5 5 6 6 5 6 6 6 6 6 7 8 8 9 12
9 10 10 10 11 10 10 10 10 8 7 6 5 5 5 4 3 2 2 2 2 3 2 2 3 4 5 4 4 5 5 5 5 5 5 6 6 6 6 8 7 8 7 7
11 11 12 13 11 10 10 10 8 6 5 5 4 3 3 3 2 2 2 2 2 2 3 3 4 5 4 3 4 4 5 9 9 5 5 6 6 6 6 7 7 7 7 6
10 9 9 10 9 8 8 7 6 5 4 3 2 1 1 1 1 2 3 3 2 3 4 4 5 5 4 3 3 4 5 7 11 7 5 5 6 6 7 6 6 7 7 8
9 7 7 8 7 7 6 5 4 4 2 1 1 1 0 1 2 4 4 4 3 4 5 5 4 3 3 3 3 4 4 5 5 5 5 5 6 7 7 7 7 8 7 7
7 7 6 6 6 5 4 3 2 2 1 0 0 2 3 3 4 4 4 3 4 5 6 5 5 3 3 5 6 4 4 5 5 5 5 7 7 7 7 8 7 7 7 6
7 6 7 6 6 5 3 2 1 0 1 2 2 2 3 4 5 5 4 3 4 4 4 3 3 3 4 6 8 4 4 4 5 5 5 6 7 7 7 7 8 8 7 6
7 7 7 5 4 3 2 1 0 2 3 3 3 4 5 5 5 3 2 3 4 3 2 4 3 3 4 5 6 4 4 5 5 5 6 7 7 7 7 8 8 7 7 6
4 4 3 2 2 2 2 2 2 3 4 4 5 4 4 4 4 3 2 2 1 2 3 2 2 5 6 6 4 4 5 5 5 6 6 7 7 7 8 8 8 8 7 7
2 1 2 2 2 3 4 4 4 4 4 5 4 4 3 3 2 0 1 2 1 4 3 3 5 8 8 5 4 5 5 6 6 6 7 7 7 7 8 8 8 7 7 6
2 3 3 4 3 3 4 5 4 3 3 3 2 1 0 1 2 1 1 2 4 5 3 4 8 9 8 4 4 5 5 6 6 7 7 7 7 7 8 8 8 8 7 8
4 4 4 4 3 3 4 3 3 3 2 2 2 2 1 1 2 2 2 3 5 5 3 5 8 7 5 4 4 5 5 6 7 7 7 7 7 8 8 8 8 8 7 7
3 3 3 2 1 1 1 1 1 1 1 1 2 2 2 2 3 3 3 4 5 5 4 3 4 4 4 4 5 5 5 6 7 7 8 8 8 8 8 8 10 8 7 7
4 3 3 3 3 2 2 2 1 1 1 0 1 1 1 2 3 4 4 4 4 4 3 3 3 3 4 4 5 5 5 6 6 7 7 7 7 7 8 10 8 7 7 7
Wind_Direction
222 232 216 243 274 284 248 209 203 242 230 240 235 212 206 192 175 167 173 175 178 183 188 190 190 192 192 194 191 186 185 194 203 203 202 203 207 210 213 214 216 214 216 222
300 271 281 290 288 289 313 311 245 204 255 280 271 107 123 156 159 164 174 183 186 188 189 191 194 196 196 199 198 189 192 202 204 199 201 205 208 209 211 216 219 216 217 218
270 293 4 296 261 215 67 17 47 118 261 3 38 45 133 167 159 174 176 180 186 193 196 196 196 193 196 201 195 193 201 205 200 198 203 207 207 206 212 216 216 218 221 218
224 24 246 250 271 109 94 50 30 44 13 44 82 60 39 22 83 114 160 180 194 202 208 210 206 204 202 194 190 197 203 205 202 199 205 205 203 210 214 211 211 218 221 220
142 197 260 278 292 149 117 57 354 30 43 40 48 49 29 13 29 55 55 51 172 205 207 212 214 214 202 203 202 205 210 210 206 202 204 203 208 215 212 208 215 216 214 217
139 167 233 256 303 19 101 89 286 19 63 49 50 57 347 344 18 36 39 39 38 42 48 23 308 217 176 211 210 221 224 221 213 205 205 209 213 215 210 208 218 218 224 221
153 200 253 284 322 42 132 214 221 196 100 77 83 143 186 358 39 40 39 38 42 47 46 25 9 50 64 12 274 262 259 240 224 217 217 219 217 215 211 211 217 221 229 232
144 171 251 320 16 143 211 195 186 188 151 114 112 113 100 64 52 42 40 36 38 47 40 25 29 46 42 13 337 348 351 305 264 247 241 233 223 224 217 210 217 226 233 245
180 203 220 190 196 205 172 176 206 179 155 134 123 109 92 74 60 50 47 41 39 46 40 29 29 43 39 9 4 14 18 1 333 315 290 268 240 236 231 220 223 232 232 244
177 238 221 206 197 169 179 173 147 125 122 120 114 106 91 77 65 54 45 42 42 45 42 30 27 35 32 17 19 28 21 5 353 342 326 311 288 260 246 238 237 239 239 245
167 198 148 240 196 157 123 108 101 94 95 103 103 97 91 79 67 58 48 39 43 46 45 34 32 30 19 18 25 25 13 360 349 341 326 315 302 280 267 253 246 244 247 243
196 190 167 187 186 134 115 107 104 99 86 81 91 91 83 73 64 61 53 47 47 46 46 37 34 24 9 11 23 21 1 344 332 324 318 312 306 304 285 272 271 260 254 249
152 143 133 135 119 114 110 104 99 96 95 86 76 81 79 68 53 53 49 50 53 52 52 44 33 12 354 356 7 5 343 326 320 318 314 310 307 304 304 302 291 282 271 259
115 110 101 107 110 107 106 102 95 88 85 85 79 72 68 58 48 47 39 33 43 47 39 28 17 347 327 336 347 339 328 319 317 306 303 302 301 300 297 298 302 300 291 276
90 103 116 111 98 95 95 92 86 80 76 69 67 67 67 63 49 19 349 4 25 15 352 344 337 313 310 323 332 325 320 309 306 302 302 299 299 300 299 298 295 293 294 295
97 93 97 96 95 92 89 88 88 83 82 76 69 68 77 84 60 3 340 349 6 327 298 300 300 291 299 315 321 315 309 311 316 308 306 308 307 305 305 304 303 300 297 292
97 94 97 96 94 93 94 98 101 96 87 87 97 107 92 69 16 331 311 302 292 274 276 281 286 287 294 306 309 302 301 306 314 315 310 311 311 307 303 302 305 305 299 296
103 111 113 111 107 100 94 92 95 98 105 117 120 105 203 237 258 272 277 286 301 307 298 287 285 291 306 314 313 305 305 304 308 308 310 315 314 310 309 307 306 306 304 305
109 109 106 104 109 111 110 105 103 111 107 102 293 271 262 259 258 263 270 285 293 293 291 297 316 334 331 322 332 313 316 321 323 320 317 318 319 313 314 312 309 310 308 308
82 80 79 78 79 87 90 92 93 25 296 284 285 288 285 278 273 271 274 274 265 264 284 329 3 355 336 325 339 330 334 335 333 329 327 323 320 317 316 317 317 318 316 314
70 71 73 73 68 65 63 48 328 293 290 287 265 258 260 267 272 273 279 288 295 322 24 37 25 352 336 337 346 349 346 343 337 332 328 324 321 320 321 322 322 323 325 325
65 63 58 50 33 346 310 298 286 283 286 280 271 267 271 277 285 299 294 251 282 63 64 34 8 359 5 10 6 357 350 345 337 332 329 327 326 326 325 327 326 325 326 329
47 19 341 313 295 285 296 300 293 287 282 278 277 278 273 271 272 223 302 325 46 78 69 30 15 21 29 24 8 359 351 346 340 335 332 329 327 326 326 328 327 326 329 334
318 308 293 287 295 307 302 294 297 297 301 307 302 296 307 29 23 43 108 81 88 87 71 41 34 34 32 17 5 357 349 343 340 337 335 332 332 332 331 331 331 333 335 337
299 295 295 300 301 284 272 282 311 326 349 2 355 360 27 112 121 112 92 83 89 81 63 44 41 36 26 8 1 353 347 344 343 339 335 334 334 332 330 330 331 331 333 334
313 303 295 290 279 281 300 335 342 326 354 8 349 357 24 56 87 98 94 83 74 70 58 37 26 23 14 4 357 350 346 343 342 340 336 335 333 332 330 331 332 333 332 332
345 353 1 1 353 357 10 16 1 337 344 38 337 352 40 74 88 90 87 76 66 59 49 34 25 16 6 359 354 352 349 347 344 342 338 337 336 335 335 335 333 333 335 336